[[{"header":{"parameterUnit":"m.s-1","parameterCategory":1,"la1":30.2991,"la2":30.254,"lo1":-89.0895,"lo2":-89.0444,"dy":0.0017,"dx":0.0017,"nx":28,"ny":28,"refTime":"2023-04-12T21:00:00:Z","depth":0,"parameterNumber":2,"parameterNumberName":"U-component_of_WINDS"},"data":[0,0,0,0,0,0,0,0,0,0,0,0,0,0,0,0,0,0,0,0,0,0,0,0,0,0,0,0,0,0,0,0,0,0,0,0,0,0,0,0,0,0,0,0,0,0,0,0,0,0,0,0,0,0,0,0,0,0,-0.509,-0.5092,0,-0.5319,-0.5322,-0.5325,-0.5392,-0.539,-0.5389,-0.5388,-0.5636,-0.5644,-0.5652,0,0,0,0,0,0,0,0,0,0,0,0,0,-0.4722,-0.4728,-0.5089,-0.5092,-0.5095,-0.5319,-0.5322,-0.5325,-0.5392,-0.539,-0.5389,-0.5387,-0.5634,-0.5643,-0.5652,0,0,0,0,0,0,0,0,0,0,0,0,0,-0.491,-0.4731,-0.5089,-0.5155,-0.5163,-0.5318,-0.5322,-0.5326,-0.5392,-0.539,-0.5388,-0.5387,-0.5631,-0.5642,-0.5654,-0.5763,0,0,-0.5689,-0.5694,0,0,0,0,0,0,0,0,-0.4899,-0.4923,-0.5143,-0.5151,-0.516,-0.5325,-0.5284,-0.5473,-0.5393,-0.5306,-0.5388,-0.5386,-0.5535,-0.5554,-0.5602,-0.5775,-0.5786,-0.569,-0.5697,-0.5702,-0.5706,0,0,0,0,0,0,0,-0.4886,-0.4914,-0.5181,-0.5146,-0.5157,-0.5178,-0.5202,-0.532,-0.5429,-0.5313,-0.5319,-0.5344,-0.554,-0.5591,-0.5608,-0.5789,-0.569,-0.57,-0.5708,-0.5712,-0.6067,-0.6069,0,0,0,0,0,0,-0.486,-0.4903,-0.5174,-0.5188,-0.5022,-0.5186,-0.5213,-0.5274,-0.5427,-0.5449,-0.5345,-0.5346,-0.5572,-0.5595,-0.5617,-0.5758,-0.5702,-0.5713,-0.572,-0.6064,-0.6067,-0.607,0,0,0,0,0,0,-0.4852,-0.4883,-0.5164,-0.5047,-0.5084,-0.5194,-0.5262,-0.528,-0.533,-0.5452,-0.5473,-0.5377,-0.5571,-0.5601,-0.5726,-0.5768,-0.5719,-0.5729,-0.6062,-0.6065,-0.6069,-0.6038,0,0,0,0,0,0,-0.4841,-0.488,-0.492,-0.5047,-0.509,-0.5265,-0.5264,-0.5285,-0.5349,-0.5352,-0.5487,-0.5507,-0.5572,-0.5708,-0.5738,-0.5783,-0.5738,-0.6059,-0.6063,-0.6068,-0.6036,-0.6041,-0.6044,0,0,0,0,0,-0.4827,-0.4905,-0.4921,-0.4954,-0.5141,-0.5267,-0.5292,-0.5362,-0.5352,-0.5395,-0.5473,-0.5503,-0.5757,-0.5721,-0.5754,-0.5803,-0.6056,-0.6062,-0.6067,-0.6035,-0.604,-0.6044,0,0,0,0,0,0,-0.4784,-0.4922,-0.4943,-0.5062,-0.5152,-0.5278,-0.5335,-0.5365,-0.5463,-0.5462,-0.5548,-0.5578,-0.5698,-0.5763,-0.5719,-0.5919,-0.5908,-0.5921,-0.5872,-0.5878,-0.5882,-0.5865,-0.5748,0,0,0,0,0,-0.4787,-0.4874,-0.4992,-0.5086,-0.513,-0.5224,-0.5282,-0.5327,-0.5425,-0.5465,-0.5552,-0.565,-0.5753,-0.5819,-0.5919,-0.6045,-0.6078,-0.6096,-0.61,-0.6102,-0.6113,-0.6188,-0.6198,-0.6088,-0.6088,-0.6088,0,0,-0.4797,-0.4884,-0.4934,-0.508,-0.5154,-0.5247,-0.5256,-0.5353,-0.5423,-0.5481,-0.5604,-0.5671,-0.5787,-0.5913,-0.5973,-0.5972,-0.6151,-0.6109,-0.611,-0.612,-0.6195,-0.6205,-0.6214,-0.6092,-0.6091,-0.609,0,0,-0.4863,-0.4934,-0.5022,-0.5096,-0.5207,-0.5269,-0.529,-0.5412,-0.5458,-0.5581,-0.5627,-0.5715,-0.5888,-0.5969,-0.6033,-0.6128,-0.6161,-0.6159,-0.6181,-0.6253,-0.6261,-0.627,-0.6307,-0.6319,-0.6169,-0.6169,-0.6169,0,-0.4862,-0.4998,-0.5064,-0.5158,-0.5223,-0.5274,-0.5366,-0.5436,-0.5577,-0.5622,-0.5617,-0.5836,-0.5918,-0.6065,-0.6088,-0.6137,-0.6167,-0.6145,-0.6254,-0.6263,-0.6272,-0.6308,-0.6321,-0.6168,-0.6168,-0.6168,-0.6168,0,-0.4993,-0.5087,-0.5145,-0.5275,-0.5346,-0.5438,-0.5523,-0.5587,-0.5626,-0.569,-0.5817,-0.5916,-0.6038,-0.6076,-0.6117,-0.6231,-0.6226,-0.6236,-0.6228,-0.628,-0.6316,-0.633,-0.6167,-0.6167,-0.6167,-0.6167,0,0,-0.504,-0.5203,-0.5224,-0.5284,-0.541,-0.5487,-0.5583,-0.5699,-0.5754,-0.5849,-0.5935,-0.6081,-0.609,-0.6163,-0.6213,-0.6275,-0.6348,-0.6279,-0.6283,-0.6291,-0.6484,-0.6477,-0.6492,-0.6369,-0.6372,-0.6374,-0.6475,0,-0.5123,-0.5292,-0.5355,-0.5496,-0.5585,-0.5636,-0.572,-0.581,-0.5872,-0.5961,-0.6032,-0.6134,-0.6138,-0.6182,-0.6246,-0.6325,-0.6389,-0.6319,-0.6455,-0.6459,-0.6427,-0.651,-0.6504,-0.6594,-0.6489,-0.6491,-0.6493,0,-0.5243,-0.5335,-0.5484,-0.56,-0.564,-0.5714,-0.5826,-0.5909,-0.6013,-0.6054,-0.6134,-0.618,-0.6288,-0.6269,-0.6421,-0.6372,-0.6432,-0.648,-0.6485,-0.6503,-0.6481,-0.6534,-0.6624,-0.6639,-0.6515,-0.6514,-0.6512,0,-0.5266,-0.5427,-0.5537,-0.5587,-0.5725,-0.5776,-0.5837,-0.5938,-0.6004,-0.6103,-0.6148,-0.6259,-0.6321,-0.6409,-0.6485,-0.6464,-0.6632,-0.6619,-0.6673,-0.6671,-0.6709,-0.6706,-0.6813,-0.6741,-0.6741,-0.6741,-0.6741,0,-0.5354,-0.5444,-0.5549,-0.5617,-0.5721,-0.5793,-0.5895,-0.5959,-0.6049,-0.6134,-0.6185,-0.6265,-0.636,-0.6453,-0.6514,-0.6633,-0.666,-0.67,-0.6716,-0.6697,-0.6692,-0.674,-0.6737,-0.6745,-0.6744,-0.6743,-0.6742,0,-0.5397,-0.5471,-0.5595,-0.5713,-0.5746,-0.5817,-0.5921,-0.5992,-0.6055,-0.6163,-0.6193,-0.6295,-0.6407,-0.6491,-0.6638,-0.6679,-0.6806,-0.6821,-0.677,-0.6779,-0.6829,-0.6824,-0.6973,-0.6998,-0.6906,-0.6906,-0.6907,0,-0.545,-0.552,-0.5645,-0.5703,-0.5762,-0.5856,-0.5922,-0.5997,-0.6065,-0.6188,-0.6245,-0.636,-0.6456,-0.6635,-0.6725,-0.6839,-0.6859,-0.6903,-0.6877,-0.6856,-0.6864,-0.6859,-0.6869,-0.6908,-0.6908,-0.6909,-0.6909,0,-0.5537,-0.5569,-0.566,-0.5765,-0.5841,-0.5928,-0.6017,-0.6063,-0.6155,-0.6229,-0.6342,-0.6416,-0.6565,-0.668,-0.6802,-0.687,-0.6907,-0.6916,-0.6935,-0.6919,-0.6887,-0.6908,-0.6783,-0.6913,-0.6913,-0.6912,-0.6912,-0.6912,-0.5589,-0.5654,-0.5752,-0.5852,-0.5926,-0.6007,-0.6079,-0.615,-0.6244,-0.6368,-0.6407,-0.6525,-0.6631,-0.6798,-0.6867,-0.6964,-0.6964,-0.6991,-0.6998,-0.7005,-0.7005,-0.6868,-0.6986,-0.6986,-0.6986,-0.6986,-0.6986,0,-0.5681,-0.5746,-0.5837,-0.5957,-0.6037,-0.6058,-0.6158,-0.6225,-0.6326,-0.6419,-0.6511,-0.6643,-0.6755,-0.6853,-0.6971,-0.703,-0.705,-0.7059,-0.7057,-0.7073,-0.6996,-0.6969,-0.7041,-0.7041,-0.7041,-0.7041,-0.7041,-0.704,-0.5738,-0.585,-0.5894,-0.6044,-0.611,-0.6222,-0.6277,-0.6354,-0.6428,-0.6572,-0.6663,-0.6724,-0.6821,-0.6946,-0.7051,-0.7078,-0.7121,-0.7126,-0.7157,-0.7084,-0.7078,-0.7072,-0.7047,-0.7133,-0.7134,-0.7226,-0.7227,-0.7228]},{"header":{"parameterUnit":"m.s-1","parameterCategory":1,"la1":30.2991,"la2":30.254,"lo1":-89.0895,"lo2":-89.0444,"dy":0.0017,"dx":0.0017,"nx":28,"ny":28,"refTime":"2023-04-12T21:00:00:Z","depth":0,"parameterNumber":3,"parameterNumberName":"V-component_of_WINDS"},"data":[0,0,0,0,0,0,0,0,0,0,0,0,0,0,0,0,0,0,0,0,0,0,0,0,0,0,0,0,0,0,0,0,0,0,0,0,0,0,0,0,0,0,0,0,0,0,0,0,0,0,0,0,0,0,0,0,0,0,-8.74,-8.74,0,-8.745,-8.7451,-8.7452,-8.7265,-8.7259,-8.7253,-8.7248,-8.7298,-8.7304,-8.731,0,0,0,0,0,0,0,0,0,0,0,0,0,-8.7137,-8.7143,-8.74,-8.74,-8.7401,-8.745,-8.7451,-8.7452,-8.7266,-8.7259,-8.7252,-8.7246,-8.7296,-8.7303,-8.7311,0,0,0,0,0,0,0,0,0,0,0,0,0,-8.7226,-8.7145,-8.74,-8.7314,-8.7307,-8.745,-8.7451,-8.7452,-8.7267,-8.7259,-8.725,-8.7242,-8.7293,-8.7303,-8.7312,-8.7539,0,0,-8.7342,-8.7346,0,0,0,0,0,0,0,0,-8.7221,-8.7236,-8.7326,-8.732,-8.7312,-8.7343,-8.7376,-8.7481,-8.7269,-8.7282,-8.7248,-8.7238,-8.7319,-8.7326,-8.7354,-8.7542,-8.7544,-8.7343,-8.7349,-8.7353,-8.7356,0,0,0,0,0,0,0,-8.7215,-8.7233,-8.742,-8.7328,-8.7319,-8.7272,-8.7275,-8.7395,-8.7347,-8.728,-8.7267,-8.7276,-8.7314,-8.7345,-8.7354,-8.7545,-8.7343,-8.7351,-8.7357,-8.7361,-8.7919,-8.7928,0,0,0,0,0,0,-8.7221,-8.7229,-8.7418,-8.7421,-8.7245,-8.7283,-8.7287,-8.7341,-8.7345,-8.7338,-8.7283,-8.7267,-8.7333,-8.7343,-8.7355,-8.762,-8.7353,-8.7362,-8.7368,-8.791,-8.7921,-8.7931,0,0,0,0,0,0,-8.7216,-8.724,-8.7416,-8.7321,-8.734,-8.7297,-8.7359,-8.7347,-8.7378,-8.7347,-8.7337,-8.7324,-8.7326,-8.7341,-8.7495,-8.762,-8.7366,-8.7375,-8.79,-8.7914,-8.7926,-8.8155,0,0,0,0,0,0,-8.7209,-8.7239,-8.7326,-8.7325,-8.7346,-8.7557,-8.7367,-8.7354,-8.7395,-8.7375,-8.7383,-8.7376,-8.7321,-8.7481,-8.7505,-8.7629,-8.7383,-8.7888,-8.7906,-8.7922,-8.8136,-8.8174,-8.8207,0,0,0,0,0,-8.7201,-8.7388,-8.7332,-8.7356,-8.7454,-8.7565,-8.7577,-8.751,-8.7406,-8.7493,-8.7472,-8.7376,-8.7602,-8.7499,-8.7523,-8.7652,-8.788,-8.7901,-8.7921,-8.812,-8.8167,-8.8206,0,0,0,0,0,0,-8.7405,-8.7387,-8.7324,-8.7517,-8.7544,-8.7533,-8.764,-8.7562,-8.7619,-8.7597,-8.7511,-8.7514,-8.7683,-8.7682,-8.7567,-8.7871,-8.7723,-8.7749,-8.7866,-8.791,-8.7945,-8.7942,-8.7391,0,0,0,0,0,-8.7473,-8.7565,-8.7543,-8.7716,-8.7733,-8.7685,-8.773,-8.7677,-8.7701,-8.7711,-8.7702,-8.7728,-8.7804,-8.7857,-8.7926,-8.8134,-8.8133,-8.8235,-8.827,-8.83,-8.8324,-8.8433,-8.8478,-8.7997,-8.7997,-8.7997,0,0,-8.7614,-8.7615,-8.7678,-8.7757,-8.7772,-8.7868,-8.7696,-8.7805,-8.7875,-8.7727,-8.7872,-8.7866,-8.7889,-8.8072,-8.8151,-8.8076,-8.8456,-8.8326,-8.8349,-8.8357,-8.8458,-8.8504,-8.8544,-8.8011,-8.8008,-8.8006,0,0,-8.7919,-8.793,-8.8074,-8.8092,-8.8117,-8.8083,-8.8118,-8.8119,-8.811,-8.8253,-8.8144,-8.8225,-8.836,-8.838,-8.8409,-8.8721,-8.8634,-8.8745,-8.8932,-8.9039,-8.9077,-8.911,-8.9221,-8.9262,-8.8769,-8.8769,-8.877,0,-8.8091,-8.8233,-8.8158,-8.8275,-8.8312,-8.8183,-8.8327,-8.8348,-8.8394,-8.8422,-8.8337,-8.8502,-8.8509,-8.8693,-8.8769,-8.8796,-8.8833,-8.8745,-8.9078,-8.911,-8.914,-8.9245,-8.9287,-8.8783,-8.8781,-8.878,-8.8779,0,-8.8442,-8.8543,-8.8656,-8.8704,-8.8753,-8.8884,-8.8827,-8.8886,-8.8828,-8.8803,-8.895,-8.8953,-8.902,-8.9059,-8.9003,-8.9236,-8.9189,-8.9093,-8.8942,-8.9201,-8.9298,-8.9337,-8.8802,-8.8797,-8.8793,-8.879,0,0,-8.8881,-8.8884,-8.8927,-8.8947,-8.8963,-8.9038,-8.9162,-8.9228,-8.928,-8.9315,-8.9416,-8.9531,-8.9442,-8.9474,-8.9419,-8.9513,-8.9759,-8.9405,-8.9404,-8.9471,-9.0015,-9.0088,-9.0136,-8.9701,-8.9708,-8.9714,-9.0013,0,-8.9181,-8.9394,-8.9329,-8.9543,-8.9633,-8.951,-8.9617,-8.9638,-8.9618,-8.9691,-8.9666,-8.975,-8.9626,-8.9645,-8.9732,-8.9711,-8.9868,-8.9688,-8.9793,-8.9798,-8.9793,-9.0187,-9.0264,-9.0546,-9.005,-9.0057,-9.0061,0,-8.9561,-8.9611,-8.9835,-8.9834,-8.987,-8.9968,-9.0022,-9.0093,-9.0114,-9.0092,-9.0128,-9.0052,-9.0171,-9.002,-9.0183,-9.0063,-9.0101,-9.0097,-9.0106,-9.0114,-8.9947,-9.0206,-9.0635,-9.0678,-9.0121,-9.0116,-9.0112,0,-8.9858,-8.9982,-9.0131,-9.0151,-9.0155,-9.0226,-9.0231,-9.0243,-9.0286,-9.0333,-9.036,-9.042,-9.0454,-9.0501,-9.0443,-9.0338,-9.0615,-9.0458,-9.0599,-9.0601,-9.0664,-9.0661,-9.1106,-9.0689,-9.0688,-9.0687,-9.0686,0,-9.0201,-9.0342,-9.0264,-9.0357,-9.051,-9.0433,-9.0587,-9.0578,-9.0589,-9.0676,-9.0573,-9.0656,-9.0574,-9.065,-9.0605,-9.0746,-9.0762,-9.0747,-9.0734,-9.0757,-9.0759,-9.0782,-9.0761,-9.0698,-9.0696,-9.0694,-9.0692,0,-9.056,-9.0514,-9.0668,-9.0659,-9.0659,-9.0773,-9.0764,-9.0848,-9.0819,-9.093,-9.0951,-9.0906,-9.099,-9.0936,-9.102,-9.099,-9.1175,-9.1134,-9.1169,-9.1158,-9.1302,-9.129,-9.1779,-9.1838,-9.1382,-9.1386,-9.139,0,-9.0783,-9.0889,-9.089,-9.0941,-9.0953,-9.1036,-9.108,-9.1007,-9.1056,-9.1086,-9.1167,-9.1241,-9.1297,-9.1436,-9.141,-9.1473,-9.1433,-9.16,-9.1442,-9.1462,-9.1436,-9.1431,-9.1441,-9.1632,-9.1638,-9.1642,-9.1645,0,-9.1183,-9.1154,-9.1221,-9.1281,-9.1336,-9.1379,-9.1413,-9.146,-9.1387,-9.1447,-9.1531,-9.1575,-9.166,-9.1735,-9.1788,-9.179,-9.1707,-9.1695,-9.1731,-9.1757,-9.1773,-9.1766,-9.1257,-9.1685,-9.1681,-9.1678,-9.1676,-9.1674,-9.148,-9.1568,-9.1583,-9.1661,-9.1679,-9.1713,-9.1791,-9.1772,-9.1841,-9.1906,-9.1857,-9.1958,-9.1973,-9.2035,-9.2048,-9.2124,-9.2056,-9.2109,-9.2122,-9.2137,-9.2157,-9.176,-9.2134,-9.2132,-9.2131,-9.213,-9.2129,0,-9.1875,-9.1878,-9.1951,-9.2002,-9.2063,-9.1978,-9.2011,-9.2067,-9.2157,-9.2178,-9.2235,-9.2331,-9.2403,-9.2382,-9.2446,-9.2511,-9.2474,-9.253,-9.2525,-9.2527,-9.2214,-9.2176,-9.2559,-9.2559,-9.2559,-9.2559,-9.2559,-9.2559,-9.2088,-9.2232,-9.2205,-9.2357,-9.2357,-9.2455,-9.2481,-9.2512,-9.2528,-9.2641,-9.27,-9.2686,-9.269,-9.2753,-9.2815,-9.2806,-9.2835,-9.2906,-9.2884,-9.2592,-9.2549,-9.2509,-9.2473,-9.2913,-9.2913,-9.3191,-9.3194,-9.3196]}]]